Regional Weather Roundup
Issued by NWS

Home | Current Version | Previous Version | Text Only | Print | Product List | Glossary On
Versions: 1 2 3 4 5 6 7 8 9 10 11 12 13 14 15 16 17 18 19 20 21 22 23 24 25 26 27 28 29 30 31 32 33 34 35 36 37 38 39 40 41 42 43 44 45 46 47 48 49 50
000
ASUS44 KMEG 240910
RWRTN
TENNESSEE HOURLY STATE WEATHER ROUNDUP
NATIONAL WEATHER SERVICE MEMPHIS TN
300 AM CST MON NOV 24 2014

TNZ002-004-019-021-049-052-054-088>092-241000-
WEST TENNESSEE

CITY           SKY/WX    TMP DP  RH WIND       PRES   REMARKS
MEMPHIS INTL   PTCLDY    59  50  72 SW17G24   29.51R
NWS MEMPHIS      N/A     60 N/A N/A MISG        N/A
JACKSON        CLOUDY    61  52  72 SW21G30   29.46R
DYERSBURG      MOCLDY   N/A N/A N/A SW21G35   29.42R
UNION CITY     CLOUDY    59  55  88 SW20G29   29.37R
PARIS          CLOUDY    59  52  77 SW24      29.40R
HUNTINGDON     CLOUDY    60  52  75 SW14      29.42R
LEXINGTON      MOCLDY    61  54  77 SW24      29.44F
SAVANNAH       PTCLDY    59  55  88 S17       29.51R
$$

TNZ008-025-027-028-033-062-065-066-241000-
NORTH MIDDLE TENNESSEE

CITY           SKY/WX    TMP DP  RH WIND       PRES   REMARKS
NASHVILLE      MOCLDY    62  55  77 S22G35    29.48F
CLARKSVILLE    MOCLDY    62  55  77 S23G31    29.39F
SMYRNA         PTCLDY    62  55  77 S14G22    29.50S
COOKEVILLE     MOCLDY    61  54  77 SW17      29.54S
CROSSVILLE     PTCLDY    60  52  74 S10G24    29.59F
$$

TNZ061-075-076-078-094-096-097-241000-
SOUTH MIDDLE TENNESSEE

CITY           SKY/WX    TMP DP  RH WIND       PRES   REMARKS
FAYETTEVILLE   PTCLDY    57  54  88 MISG      29.59S
TULLAHOMA      MOCLDY    61  54  77 S17G28    29.59R
WINCHESTER     PTCLDY    61  54  77 S12G22    29.61R
MCMINNVILLE    MOCLDY    61  55  82 S6        29.57R
COLUMBIA       CLEAR     61  61 100 S17       29.49S
SHELBYVILLE    MOCLDY    63  57  82 S20G37    29.56S
$$

TNZ017-018-042-046-047-241000-
NORTHEAST TENNESSEE

CITY           SKY/WX    TMP DP  RH WIND       PRES   REMARKS
TRI CITIES     PTCLDY    57  50  77 S5        29.64S
ELIZABETHTON   SUNNY     48  46  93 CALM      29.65S
$$

TNZ012-013-036-069-073-074-241000-
CENTRAL EAST TENNESSEE

CITY           SKY/WX    TMP DP  RH WIND       PRES   REMARKS
KNOXVILLE      PTCLDY    61  52  72 SW18G25   29.62S
OAK RIDGE      MOCLDY    62  54  74 S10G20    29.62F
GATLINBURG     SUNNY     63  46  55 SW6       29.61S
MORRISTOWN     SUNNY     63  52  67 SW13      29.62S
$$

TNZ083-085-099-241000-
SOUTHEAST TENNESSEE

CITY           SKY/WX    TMP DP  RH WIND       PRES   REMARKS
CHATTANOOGA    CLOUDY    62  56  80 S9G21     29.66S
$$

SKY/WX REPORTED AS FAIR MEANS FEW OR NO CLOUDS BELOW
12 THOUSAND FEET.



USA.gov is the U.S. government's official web portal to all federal, state and local government web resources and services.